Regional Weather Roundup
Issued by NWS Northern Indiana

Home | Current Version | Previous Version | Graphics & Text | Print | Product List | Glossary On
Versions: 1 2 3 4 5 6 7 8 9 10 11 12 13 14 15 16 17 18 19 20 21 22 23 24 25 26 27 28 29 30 31 32 33 34 35 36 37 38 39 40 41 42 43 44 45 46 47 48 49 50
000
ASUS43 KIWX 311300
RWRIWX

KIWX WEATHER ROUNDUP
NATIONAL WEATHER SERVICE NORTHERN INDIANA
900 AM EDT FRI JUL 31 2015

NOTE: "FAIR" INDICATES FEW OR NO CLOUDS BELOW 12,000 FEET WITH NO
SIGNIFICANT WEATHER AND/OR OBSTRUCTIONS TO VISIBILITY.

* THESE STATIONS ARE NOT UNDER NWS QUALITY CONTROL. THEY ALSO MAY NOT
  REPORT WEATHER SUCH AS PRECIPITATION OR FOG.

INZ001>027-311400-
NORTHERN INDIANA

CITY           SKY/WX    TMP DP  RH WIND       PRES   REMARKS
GARY*          MOSUNNY   73  63  68 W8        30.03S
KNOX*          SUNNY     70  61  73 W7        30.03S
SOUTH BEND     SUNNY     73  63  70 SW6       30.02F
ELKHART*       SUNNY     73  64  73 W8        30.02
GOSHEN         SUNNY     72  64  76 W6        30.02S
MONTICELLO*    SUNNY     69  66  88 W6        30.05S
WARSAW*        SUNNY     72  63  73 W6        30.04S
ANGOLA*        SUNNY     73  66  78 NW7       30.02S
FORT WAYNE     SUNNY     72  62  71 W8        30.04R
PERU/GRISSOM   SUNNY     71  64  80 W7        30.05S

$$
INZ028>050-311400-
CENTRAL INDIANA

CITY           SKY/WX    TMP DP  RH WIND       PRES   REMARKS
LAFAYETTE      SUNNY     69  66  90 W3        30.07S
KOKOMO*        SUNNY     72  63  73 W9        30.07S
MUNCIE*        SUNNY     70  62  76 NW10      30.06R
INDIANAPOLIS   MOSUNNY   74  63  68 NW8       30.07R

$$
MIZ043>046-050>051-056>058-064>065-071>073-077>080-311400-
SOUTHWEST LOWER MICHIGAN

CITY           SKY/WX    TMP DP  RH WIND       PRES   REMARKS
BATTLE CREEK   SUNNY     74  61  63 W12       29.99F
BENTON HARBOR  SUNNY     77  63  61 W8        29.99F
COLDWATER*     SUNNY     70  62  77 W3        30.01S
HILLSDALE*     SUNNY     73  63  72 W8        30.01S
HOLLAND        SUNNY     76  62  62 W8        29.97F
GRAND RAPIDS   MOSUNNY   74  62  66 W10       29.96F
KALAMAZOO      SUNNY     74  62  66 W8        29.99F
STURGIS*       SUNNY     70  64  83 SW3       30.01S
THREE RIVERS*  FAIR      75  62  64 W6        30.01S

$$
OHZ001>008-015>018-024>025-311400-
NORTHWEST OHIO

CITY           SKY/WX    TMP DP  RH WIND       PRES   REMARKS
DEFIANCE       SUNNY     73  62  68 W6        30.01R
FINDLAY        SUNNY     72  63  73 W12       30.00S
TOLEDO EXPRESS SUNNY     71  61  70 W7        29.98S
TOLEDO METCALF SUNNY     73  60  63 W7        29.98S
LIMA           SUNNY     72  64  76 W7        30.03R

$$
AND FOR LAKE MICHIGAN COASTAL AND OPEN LAKE BUOY OBSERVATIONS

STATION/POSITION TEMP    WIND        PRES    VSBY  WAVE
                 AIR SEA DIR/SP/G                  HT/PER
                 (F)     (DEG/KT/KT) (MB)    (MI)  (FT/S)
CALUMET HARBOR    71     220/  5/  6   N/A
MICHIGAN CITY     71     190/  8/  9   N/A
BURNS HARBOR      71     230/  8/ 10 1017.3R
SAINT JOSEPH      73     240/  7/ 10 1015.9F
4 MI NW BRIDGMAN  74 74  300/ 10/ 14   N/A           2/ 4
MICHIGAN CITY     74 73  250/  8/ 12   N/A           2/ 4

$$
&&


USA.gov is the U.S. government's official web portal to all federal, state and local government web resources and services.